Regional Weather Roundup
Issued by NWS Bismarck, ND

Home | Current Version | Previous Version | Text Only | Print | Product List | Glossary On
Versions: 1 2 3 4 5 6 7 8 9 10 11 12 13 14 15 16 17 18 19 20 21 22 23 24 25 26 27 28 29 30 31 32 33 34 35 36 37 38 39 40 41 42 43 44 45 46 47 48 49 50
887
ASUS43 KBIS 240810
RWRBIS

NWR BROADCAST TEXT
NATIONAL WEATHER SERVICE BISMARCK ND
300 AM CDT TUE MAY 24 2016

NOTE: "FAIR" INDICATES FEW OR NO CLOUDS BELOW 12,000 FEET WITH NO
SIGNIFICANT WEATHER AND/OR OBSTRUCTIONS TO VISIBILITY.


CITY           SKY/WX    TMP DP  RH WIND       PRES   REMARKS
WILLISTON      CLEAR     47  39  74 SW3       29.79R
MINOT          CLOUDY    53  41  63 SE3       29.76R
MINOT AFB      CLOUDY    47  39  74 W8        29.75S
BISMARCK       MOCLDY    53  45  74 NE3       29.76S
DICKINSON      PTCLDY    41  34  76 NW7       29.80S
GARRISON         N/A     49  40  71 NW6       29.79R
HETTINGER ARPT CLEAR     37  33  85 W5        29.83R
JAMESTOWN      CLOUDY    58  49  72 N12       29.78F
BEACH          PTSUNNY   39  39 100 S6        29.86R
CARRINGTON     FAIR      59  48  67 SE10      29.79F
HAZEN          CLOUDY    46  39  76 W8        29.81R
LINTON           N/A     52  50  93 SE5         N/A
MANDAN         FAIR      50  45  81 NW5       29.78R
OAKES            N/A    N/A N/A N/A MISG        N/A
RUGBY          FAIR      52  43  71 CALM      29.76F
STANLEY        FAIR      46  41  81 W5        29.81R
WATFORD CITY   FAIR      41  36  81 CALM      29.81R
$$

CITY           SKY/WX    TMP DP  RH WIND       PRES   REMARKS
GRAND FORKS    CLOUDY    60  51  72 MISG      29.76R
GRAND FORKS AF LGT RAIN  57  54  88 W17       29.80R
DEVILS LAKE    CLOUDY    60  45  57 SE9       29.77S
FARGO          PTCLDY    61  47  59 NE5       29.73S
CAVALIER       CLOUDY    57  50  77 W5        29.72S
GRAFTON        FAIR      55  52  88 SW5       29.75R
GWINNER        FAIR      57  55  94 W7        29.75R
LANGDON        FAIR      55  45  67 NW3       29.76S
ROLLA          FAIR      50  41  71 W6        29.78R
WALHALLA       FAIR      52  52 100 CALM      29.73S
$$

CITY           SKY/WX    TMP DP  RH WIND       PRES   REMARKS
ABERDEEN       PTCLDY    59  54  83 NW10      29.78R
MOBRIDGE       PTCLDY    54  46  74 CALM      29.74S
BUFFALO          N/A     47  36  65 NW8       29.78S
RAPID CITY     CLEAR     50  36  58 NW10      29.84R
GLASGOW        MOCLDY    46  41  82 W7        29.78S
SIDNEY         CLEAR     44  39  82 CALM      29.80S
WOLF POINT     CLEAR     45  42  89 NW3       29.79S
GLENDIVE       PTCLDY    45  39  81 S5        29.85R
MILES CITY     PTCLDY    50  40  68 NW9       29.84S
BAKER          CLEAR     44  36  73 W3        29.85S
$$

CITY           SKY/WX    TMP DP  RH WIND       PRES   REMARKS
BILLINGS       LGT RAIN  50  38  63 SE5       29.89S
GREAT FALLS    CLOUDY    41  40  96 SW5       29.89S
REGINA         PTCLDY    41  41 100 SW10      29.68S
ESTEVAN        PTCLDY    41  37  87 SW7       29.75R
$$





USA.gov is the U.S. government's official web portal to all federal, state and local government web resources and services.